Tracking 27122 objects as of 24-Mar-2023
HD Live streaming from Space Station
objects crossing your sky now

FENGYUN 1C DEB

Track FENGYUN 1C DEB now!
10-day predictions


NORAD ID: 35191
Int'l Code: 1999-025DNX
Perigee: 858.2 km
Apogee: 1,011.1 km
Inclination: 98.9 °
Period: 103.6 minutes
Semi major axis: 7305 km
RCS: 0.0133 m2 (small)
Launch date: May 10, 1999
Source: People's Republic of China (PRC)
Launch site: Taiyaun Space Center, China (TSC)

Note: This is SATELLITE DEBRIS
Your satellite tracking list
Your tracking list is empty




NASA's NSSDC Master Catalog

Two Line Element Set (TLE):
1 35191U 99025DNX 23082.24044330  .00000455  00000-0  38352-3 0  9997
2 35191  98.9492  86.8119 0104633  40.6326 320.2582 13.90308902740641
Source of the keplerian elements: AFSPC